FW0014 Weather Reports


Display with metric or nautical units.
time (UTC)temp
F
wind
direction
speed
MPH
gust
MPH
rain 1hr
in
rain 24hr
in
rain mn
in
humidity
%
barometer
mb
20220122061828 25 223 0.0 1.0 0.00 0.00 0.00 63 1035.9
20220122061314 26 223 0.0 2.0 0.00 0.00 0.00 63 1035.9
20220122060815 26 223 1.0 2.0 0.00 0.00 0.00 62 1036.0
20220122060338 26 223 0.0 0.0 0.00 0.00 0.00 62 1035.9
20220122055832 26 223 0.0 0.0 0.00 0.00 0.00 61 1036.1
20220122055327 26 224 0.0 0.0 0.00 0.00 0.00 60 1036.1
20220122054832 27 223 0.0 0.0 0.00 0.00 0.00 59 1036.1
20220122054317 27 223 0.0 0.0 0.00 0.00 0.00 58 1036.2
20220122053819 28 223 0.0 0.0 0.00 0.00 0.00 57 1036.3
20220122053323 28 223 0.0 0.0 0.00 0.00 0.00 57 1036.1
20220122052826 28 223 0.0 0.0 0.00 0.00 0.00 58 1035.9
20220122052328 28 223 0.0 0.0 0.00 0.00 0.00 58 1035.8
20220122051814 28 223 0.0 0.0 0.00 0.00 0.00 58 1035.7
20220122051317 28 223 0.0 0.0 0.00 0.00 0.00 58 1035.6
20220122050821 27 223 0.0 0.0 0.00 0.00 0.00 60 1035.7
20220122050323 26 224 0.0 0.0 0.00 0.00 0.00 62 1035.7
20220122045824 26 223 0.0 0.0 0.00 0.00 0.00 62 1035.5
20220122045326 26 224 0.0 0.0 0.00 0.00 0.00 61 1035.4
20220122044827 27 223 0.0 0.0 0.00 0.00 0.00 60 1035.5
20220122044325 27 223 0.0 0.0 0.00 0.00 0.00 59 1035.4
20220122043826 27 223 0.0 2.0 0.00 0.00 0.00 59 1035.4
20220122043330 27 223 1.0 2.0 0.00 0.00 0.00 60 1035.3
20220122042831 27 223 0.0 1.0 0.00 0.00 0.00 59 1035.5
20220122042315 28 111 0.0 0.0 0.00 0.00 0.00 59 1035.5
20220122041817 27 111 0.0 0.0 0.00 0.00 0.00 58 1035.4
20220122041319 28 111 0.0 0.0 0.00 0.00 0.00 58 1035.5
20220122040821 28 111 0.0 0.0 0.00 0.00 0.00 57 1035.3
20220122040322 29 111 0.0 0.0 0.00 0.00 0.00 55 1035.3
20220122035823 29 111 0.0 0.0 0.00 0.00 0.00 55 1035.4
20220122035324 29 111 0.0 0.0 0.00 0.00 0.00 55 1035.5
20220122034825 29 111 0.0 0.0 0.00 0.00 0.00 55 1035.5
20220122034325 30 111 0.0 0.0 0.00 0.00 0.00 53 1035.5
20220122033826 30 111 0.0 0.0 0.00 0.00 0.00 53 1035.5
20220122033327 30 111 0.0 0.0 0.00 0.00 0.00 53 1035.4
20220122032826 31 111 0.0 0.0 0.00 0.00 0.00 52 1035.6
20220122032329 31 111 0.0 0.0 0.00 0.00 0.00 51 1035.5
20220122031832 31 111 0.0 0.0 0.00 0.00 0.00 51 1035.4
20220122031334 31 111 0.0 0.0 0.00 0.00 0.00 51 1035.4
20220122030834 31 111 0.0 0.0 0.00 0.00 0.00 50 1035.4
20220122030334 32 111 0.0 0.0 0.00 0.00 0.00 50 1035.4
20220122025818 32 111 0.0 0.0 0.00 0.00 0.00 50 1035.2
20220122025322 32 111 0.0 0.0 0.00 0.00 0.00 49 1035.2
20220122024825 32 111 0.0 1.0 0.00 0.00 0.00 49 1035.2
20220122024325 32 111 0.0 1.0 0.00 0.00 0.00 49 1035.1
20220122023825 32 111 0.0 1.0 0.00 0.00 0.00 48 1035.1
20220122023315 33 111 0.0 0.0 0.00 0.00 0.00 48 1035.0
20220122022815 33 111 0.0 1.0 0.00 0.00 0.00 47 1035.1
20220122022316 34 111 0.0 1.0 0.00 0.00 0.00 47 1035.1
20220122021815 34 111 1.0 2.0 0.00 0.00 0.00 47 1035.1
20220122021315 34 111 1.0 2.0 0.00 0.00 0.00 47 1035.0
20220122020819 34 115 1.0 1.0 0.00 0.00 0.00 47 1035.0
20220122020324 34 115 0.0 3.0 0.00 0.00 0.00 46 1035.0
20220122015828 35 115 1.0 3.0 0.00 0.00 0.00 46 1035.0
20220122015330 34 117 2.0 3.0 0.00 0.00 0.00 47 1034.8
20220122014829 34 116 0.0 1.0 0.00 0.00 0.00 47 1035.0
20220122014331 34 116 0.0 1.0 0.00 0.00 0.00 47 1034.8
20220122013815 34 116 1.0 1.0 0.00 0.00 0.00 47 1034.9
20220122013317 34 116 0.0 1.0 0.00 0.00 0.00 46 1034.8
20220122012819 35 116 0.0 0.0 0.00 0.00 0.00 44 1034.8
20220122012321 36 116 0.0 1.0 0.00 0.00 0.00 43 1034.8
20220122011821 37 116 0.0 1.0 0.00 0.00 0.00 43 1034.7
20220122011324 37 116 1.0 1.0 0.00 0.00 0.00 43 1034.6
20220122010828 37 111 1.0 1.0 0.00 0.00 0.00 43 1034.5
20220122010331 38 111 0.0 1.0 0.00 0.00 0.00 42 1034.5
20220122005833 39 111 0.0 1.0 0.00 0.00 0.00 41 1034.6
20220122005334 39 111 0.0 2.0 0.00 0.00 0.00 39 1034.5
20220122004815 40 112 1.0 2.0 0.00 0.00 0.00 39 1034.4
20220122004319 40 97 1.0 2.0 0.00 0.00 0.00 38 1034.4
20220122003909 40 92 1.0 2.0 0.00 0.00 0.00 38 1034.3
20220122003328 41 105 1.0 4.0 0.00 0.00 0.00 38 1034.2
20220122002833 41 109 2.0 4.0 0.00 0.00 0.00 37 1034.3
20220122002316 41 102 2.0 3.0 0.00 0.00 0.00 37 1034.2
20220122001820 41 100 1.0 2.0 0.00 0.00 0.00 36 1034.1
20220122001321 42 112 1.0 2.0 0.00 0.00 0.00 36 1034.1
20220122000822 42 109 1.0 3.0 0.00 0.00 0.00 35 1034.2
20220122000324 43 95 1.0 4.0 0.00 0.00 0.00 34 1034.1
20220121235820 43 99 1.0 2.0 0.00 0.00 0.00 34 1033.9
20220121235321 44 94 1.0 2.0 0.00 0.00 0.00 33 1034.0
20220121234824 45 94 1.0 4.0 0.00 0.00 0.00 32 1034.0
20220121234325 45 116 2.0 4.0 0.00 0.00 0.00 32 1033.9
20220121233827 46 107 1.0 4.0 0.00 0.00 0.00 32 1033.8
20220121233328 46 97 3.0 5.0 0.00 0.00 0.00 31 1033.8
20220121232831 46 78 2.0 5.0 0.00 0.00 0.00 31 1033.8
20220121232334 46 94 2.0 5.0 0.00 0.00 0.00 31 1033.8
20220121231816 47 84 2.0 5.0 0.00 0.00 0.00 31 1033.7
20220121231319 47 75 2.0 7.0 0.00 0.00 0.00 31 1033.7
20220121230822 47 119 4.0 7.0 0.00 0.00 0.00 31 1033.6
20220121230324 47 76 2.0 4.0 0.00 0.00 0.00 31 1033.6
20220121225828 47 89 2.0 4.0 0.00 0.00 0.00 30 1033.7
20220121225325 47 73 2.0 4.0 0.00 0.00 0.00 30 1033.7
20220121224828 47 39 2.0 4.0 0.00 0.00 0.00 30 1033.6
20220121224331 48 90 3.0 5.0 0.00 0.00 0.00 29 1033.8
20220121223833 48 89 1.0 5.0 0.00 0.00 0.00 29 1033.8
20220121223335 48 105 3.0 5.0 0.00 0.00 0.00 29 1033.8
20220121222816 47 81 2.0 7.0 0.00 0.00 0.00 29 1033.8
20220121222318 48 69 3.0 7.0 0.00 0.00 0.00 29 1033.7
20220121221817 48 49 4.0 6.0 0.00 0.00 0.00 29 1033.7
20220121221317 48 68 1.0 6.0 0.00 0.00 0.00 29 1033.7
20220121220819 47 92 3.0 11.0 0.00 0.00 0.00 29 1033.6
20220121220320 48 48 4.0 11.0 0.00 0.00 0.00 29 1033.7
20220121215823 48 43 3.0 6.0 0.00 0.00 0.00 28 1033.8
20220121215325 48 115 3.0 6.0 0.00 0.00 0.00 28 1033.8
20220121214826 47 100 3.0 7.0 0.00 0.00 0.00 29 1033.8
20220121214327 47 65 2.0 7.0 0.00 0.00 0.00 29 1033.9
20220121213826 47 60 4.0 7.0 0.00 0.00 0.00 28 1033.8
20220121213325 47 111 4.0 11.0 0.00 0.00 0.00 28 1033.8
20220121212825 47 83 5.0 11.0 0.00 0.00 0.00 28 1033.7
20220121212324 47 25 1.0 8.0 0.00 0.00 0.00 29 1033.7
20220121211825 47 2 6.0 8.0 0.00 0.00 0.00 29 1033.7
20220121211325 47 41 3.0 8.0 0.00 0.00 0.00 29 1033.8
20220121210824 47 47 4.0 8.0 0.00 0.00 0.00 28 1033.8
20220121210325 47 58 3.0 8.0 0.00 0.00 0.00 28 1034.0
20220121205828 47 51 3.0 8.0 0.00 0.00 0.00 29 1033.9
20220121205331 47 102 4.0 9.0 0.00 0.00 0.00 28 1033.9
20220121204828 46 11 4.0 9.0 0.00 0.00 0.00 28 1033.9
20220121204331 46 57 2.0 7.0 0.00 0.00 0.00 28 1034.0
20220121203833 46 84 2.0 7.0 0.00 0.00 0.00 28 1034.1
20220121203328 46 102 1.0 9.0 0.00 0.00 0.00 29 1034.1
20220121202832 45 56 5.0 9.0 0.00 0.00 0.00 28 1034.2
20220121202315 45 19 5.0 9.0 0.00 0.00 0.00 29 1034.3
20220121201816 45 75 4.0 9.0 0.00 0.00 0.00 28 1034.4
20220121201317 46 52 4.0 8.0 0.00 0.00 0.00 28 1034.4
20220121200818 46 141 3.0 10.0 0.00 0.00 0.00 28 1034.5
20220121200318 44 100 2.0 7.0 0.00 0.00 0.00 29 1034.6
20220121195820 44 56 4.0 7.0 0.00 0.00 0.00 29 1034.6
20220121195322 44 36 4.0 9.0 0.00 0.00 0.00 28 1034.7
20220121194824 44 27 4.0 9.0 0.00 0.00 0.00 28 1034.7
20220121194326 45 48 1.0 7.0 0.00 0.00 0.00 28 1034.8
20220121193824 44 28 4.0 7.0 0.00 0.00 0.00 29 1035.1
20220121193325 43 92 3.0 7.0 0.00 0.00 0.00 28 1035.3
20220121192826 43 323 3.0 6.0 0.00 0.00 0.00 28 1035.2
20220121192326 43 36 4.0 6.0 0.00 0.00 0.00 28 1035.4
20220121191826 43 8 2.0 8.0 0.00 0.00 0.00 28 1035.7
20220121191326 42 78 1.0 9.0 0.00 0.00 0.00 29 1035.8
20220121190825 42 10 4.0 9.0 0.00 0.00 0.00 28 1035.6
20220121190325 42 94 2.0 7.0 0.00 0.00 0.00 29 1035.8
20220121185824 42 47 3.0 8.0 0.00 0.00 0.00 28 1035.8
20220121185326 41 23 4.0 8.0 0.00 0.00 0.00 28 1036.0
20220121184828 41 97 5.0 7.0 0.00 0.00 0.00 29 1036.2
20220121184330 41 102 2.0 6.0 0.00 0.00 0.00 29 1036.4
20220121183832 40 61 4.0 6.0 0.00 0.00 0.00 29 1036.3
20220121183333 40 297 3.0 8.0 0.00 0.00 0.00 29 1036.5
20220121182832 40 337 4.0 7.0 0.00 0.00 0.00 28 1036.5
20220121182331 40 109 4.0 6.0 0.00 0.00 0.00 30 1036.6
20220121181830 39 49 4.0 9.0 0.00 0.00 0.00 31 1036.8
20220121181334 39 33 5.0 9.0 0.00 0.00 0.00 31 1036.9
20220121180815 40 303 4.0 7.0 0.00 0.00 0.00 30 1037.2
20220121180317 39 73 2.0 7.0 0.00 0.00 0.00 32 1037.2
20220121175819 38 64 4.0 7.0 0.00 0.00 0.00 32 1037.3
20220121175321 38 250 4.0 7.0 0.00 0.00 0.00 31 1037.3
20220121174823 39 33 3.0 6.0 0.00 0.00 0.00 33 1037.4
20220121174322 37 133 1.0 10.0 0.00 0.00 0.00 35 1037.4
20220121173823 37 142 4.0 10.0 0.00 0.00 0.00 33 1037.5
20220121173324 37 96 2.0 6.0 0.00 0.00 0.00 34 1037.7
20220121172825 36 91 2.0 7.0 0.00 0.00 0.00 35 1037.8
20220121172326 36 64 3.0 7.0 0.00 0.00 0.00 34 1037.8
20220121171828 36 41 4.0 7.0 0.00 0.00 0.00 35 1037.7
20220121171330 35 130 2.0 5.0 0.00 0.00 0.00 36 1038.0
20220121170828 35 51 2.0 5.0 0.00 0.00 0.00 36 1037.9
20220121170328 34 118 3.0 6.0 0.00 0.00 0.00 37 1037.9
20220121165829 34 331 2.0 6.0 0.00 0.00 0.00 36 1038.0
20220121165329 34 22 2.0 7.0 0.00 0.00 0.00 37 1038.2
20220121164829 33 53 3.0 7.0 0.00 0.00 0.00 37 1038.2
20220121164330 33 73 4.0 6.0 0.00 0.00 0.00 38 1038.2
20220121163826 32 55 2.0 8.0 0.00 0.00 0.00 38 1038.2
20220121163327 32 345 3.0 8.0 0.00 0.00 0.00 38 1038.2
20220121162827 32 30 3.0 7.0 0.00 0.00 0.00 38 1038.3
20220121162326 32 62 3.0 6.0 0.00 0.00 0.00 39 1038.4
20220121161826 31 74 2.0 7.0 0.00 0.00 0.00 39 1038.4
20220121161325 31 37 4.0 7.0 0.00 0.00 0.00 39 1038.4
20220121160827 31 94 4.0 7.0 0.00 0.00 0.00 40 1038.4
20220121160330 30 55 5.0 7.0 0.00 0.00 0.00 39 1038.5
20220121155831 30 99 2.0 8.0 0.00 0.00 0.00 40 1038.3
20220121155331 30 21 4.0 8.0 0.00 0.00 0.00 40 1038.2
20220121154835 30 24 3.0 8.0 0.00 0.00 0.00 40 1038.3
20220121154315 29 50 4.0 9.0 0.00 0.00 0.00 41 1038.0
20220121153817 29 38 5.0 9.0 0.00 0.00 0.00 40 1038.2
20220121153318 29 33 4.0 9.0 0.00 0.00 0.00 41 1038.1
20220121152821 28 2 4.0 8.0 0.00 0.00 0.00 42 1038.0
20220121152321 28 17 4.0 8.0 0.00 0.00 0.00 42 1037.8
20220121151821 27 15 5.0 10.0 0.00 0.00 0.00 42 1037.9
20220121151320 27 43 6.0 10.0 0.00 0.00 0.00 42 1037.8
20220121150820 27 43 5.0 9.0 0.00 0.00 0.00 43 1037.8
20220121150319 27 331 5.0 9.0 0.00 0.00 0.00 43 1037.7
20220121145819 26 20 4.0 11.0 0.00 0.00 0.00 44 1037.7
20220121145319 26 39 6.0 11.0 0.00 0.00 0.00 44 1037.7
20220121144818 26 21 7.0 10.0 0.00 0.00 0.00 44 1037.5
20220121144318 26 43 4.0 7.0 0.00 0.00 0.00 45 1037.6
20220121143817 25 10 4.0 9.0 0.00 0.00 0.00 46 1037.5
20220121143317 24 26 5.0 9.0 0.00 0.00 0.00 47 1037.6
20220121142816 24 22 4.0 8.0 0.00 0.00 0.00 48 1037.4
20220121142316 23 32 3.0 5.0 0.00 0.00 0.00 49 1037.4
20220121141815 23 25 2.0 4.0 0.00 0.00 0.00 50 1037.5
20220121141315 22 340 2.0 3.0 0.00 0.00 0.00 52 1037.4
20220121140835 22 353 1.0 2.0 0.00 0.00 0.00 52 1037.2
20220121140334 22 338 1.0 2.0 0.00 0.00 0.00 53 1037.3
20220121135833 21 14 1.0 4.0 0.00 0.00 0.00 53 1037.3
20220121135332 21 327 2.0 4.0 0.00 0.00 0.00 53 1037.2
20220121134832 20 332 2.0 4.0 0.00 0.00 0.00 54 1037.3
20220121134332 20 339 1.0 2.0 0.00 0.00 0.00 54 1037.2
20220121133831 20 351 1.0 3.0 0.00 0.00 0.00 54 1037.0
20220121133330 20 344 2.0 3.0 0.00 0.00 0.00 54 1036.9
20220121132830 20 348 1.0 2.0 0.00 0.00 0.00 54 1036.8
20220121132329 20 349 1.0 2.0 0.00 0.00 0.00 54 1036.8
20220121131829 20 355 1.0 2.0 0.00 0.00 0.00 54 1036.8
20220121131327 21 341 1.0 3.0 0.00 0.00 0.00 54 1036.9
20220121130826 21 347 1.0 3.0 0.00 0.00 0.00 54 1036.7
20220121130326 21 358 2.0 4.0 0.00 0.00 0.00 53 1036.8
20220121125827 21 19 2.0 4.0 0.00 0.00 0.00 53 1036.8
20220121125327 21 341 2.0 3.0 0.00 0.00 0.00 53 1036.8
20220121124825 21 332 2.0 3.0 0.00 0.00 0.00 53 1036.7
20220121124323 21 345 2.0 4.0 0.00 0.00 0.00 53 1036.6
20220121123823 21 350 2.0 4.0 0.00 0.00 0.00 52 1036.6
20220121123324 21 341 2.0 4.0 0.00 0.00 0.00 53 1036.6
20220121122823 21 348 2.0 4.0 0.00 0.00 0.00 52 1036.8
20220121122324 21 353 2.0 4.0 0.00 0.00 0.00 53 1036.7
20220121121826 21 345 3.0 5.0 0.00 0.00 0.00 52 1036.6
20220121121328 21 336 3.0 5.0 0.00 0.00 0.00 52 1036.7
20220121120829 21 328 3.0 4.0 0.00 0.00 0.00 52 1036.9
20220121120332 21 331 3.0 4.0 0.00 0.00 0.00 52 1036.8
20220121115834 21 320 3.0 4.0 0.00 0.00 0.00 52 1036.8
20220121115314 21 330 2.0 4.0 0.00 0.00 0.00 53 1036.9
20220121114817 20 338 2.0 3.0 0.00 0.00 0.00 53 1036.9
20220121114320 20 333 2.0 3.0 0.00 0.00 0.00 53 1037.1
20220121113822 20 338 2.0 3.0 0.00 0.00 0.00 53 1037.0
20220121113323 20 329 2.0 4.0 0.00 0.00 0.00 53 1037.2
20220121112827 20 3 2.0 3.0 0.00 0.00 0.00 54 1037.2
20220121112329 20 345 2.0 3.0 0.00 0.00 0.00 54 1037.2
20220121111832 20 308 1.0 3.0 0.00 0.00 0.00 54 1037.0
20220121111314 20 304 2.0 3.0 0.00 0.00 0.00 54 1037.0
20220121110817 20 289 1.0 2.0 0.00 0.00 0.00 53 1037.0
20220121110320 20 289 1.0 2.0 0.00 0.00 0.00 53 1037.0
20220121105823 20 308 1.0 2.0 0.00 0.00 0.00 53 1037.1
20220121105327 21 308 1.0 2.0 0.00 0.00 0.00 52 1037.2
20220121104828 21 308 0.0 2.0 0.00 0.00 0.00 52 1037.2
20220121104328 21 308 1.0 3.0 0.00 0.00 0.00 50 1037.2
20220121103830 21 339 1.0 3.0 0.00 0.00 0.00 50 1037.2
20220121103332 22 334 1.0 4.0 0.00 0.00 0.00 49 1037.3
20220121102814 22 341 2.0 5.0 0.00 0.00 0.00 49 1037.3
20220121102334 22 330 2.0 5.0 0.00 0.00 0.00 49 1037.5
20220121101816 22 314 2.0 5.0 0.00 0.00 0.00 49 1037.4
20220121101319 22 339 2.0 4.0 0.00 0.00 0.00 48 1037.5
20220121100821 22 322 2.0 4.0 0.00 0.00 0.00 49 1037.6
20220121100322 22 333 1.0 4.0 0.00 0.00 0.00 49 1037.7
20220121095825 22 325 2.0 4.0 0.00 0.00 0.00 49 1037.7
20220121095327 22 323 2.0 6.0 0.00 0.00 0.00 49 1037.8
20220121094829 22 330 3.0 6.0 0.00 0.00 0.00 49 1037.6
20220121094332 22 313 2.0 5.0 0.00 0.00 0.00 49 1037.6
20220121093832 22 351 3.0 5.0 0.00 0.00 0.00 49 1037.6
20220121093331 22 336 2.0 4.0 0.00 0.00 0.00 49 1037.7
20220121092830 22 334 2.0 4.0 0.00 0.00 0.00 49 1037.7
20220121092329 22 33 2.0 4.0 0.00 0.00 0.00 49 1037.6
20220121091828 22 341 1.0 4.0 0.00 0.00 0.00 48 1037.7
20220121091328 22 330 2.0 4.0 0.00 0.00 0.00 48 1037.7
20220121090827 22 329 2.0 6.0 0.00 0.00 0.00 48 1037.7
20220121090327 23 351 3.0 6.0 0.00 0.00 0.00 48 1037.6
20220121085826 23 326 2.0 3.0 0.00 0.00 0.00 48 1037.6
20220121085327 23 336 2.0 4.0 0.00 0.00 0.00 47 1037.7
20220121084829 23 329 2.0 5.0 0.00 0.00 0.00 47 1037.7
20220121084330 23 315 2.0 5.0 0.00 0.00 0.00 47 1037.8
20220121083832 23 320 2.0 5.0 0.00 0.00 0.00 46 1037.6
20220121083334 23 305 2.0 4.0 0.00 0.00 0.00 46 1037.7
20220121082815 23 325 1.0 4.0 0.00 0.00 0.00 46 1037.6
20220121082317 24 332 2.0 4.0 0.00 0.00 0.00 46 1037.6
20220121081819 24 330 2.0 4.0 0.00 0.00 0.00 45 1037.6
20220121081321 24 339 2.0 4.0 0.00 0.00 0.00 45 1037.7
20220121080823 24 310 2.0 4.0 0.00 0.00 0.00 45 1037.8
20220121080326 24 337 1.0 4.0 0.00 0.00 0.00 46 1037.7
20220121075828 25 2 2.0 5.0 0.00 0.00 0.00 45 1037.7
20220121075330 25 348 3.0 7.0 0.00 0.00 0.00 44 1037.8
20220121074833 25 343 4.0 7.0 0.00 0.00 0.00 44 1037.7
20220121074315 25 325 2.0 7.0 0.00 0.00 0.00 43 1037.8
20220121073816 25 30 3.0 8.0 0.00 0.00 0.00 43 1037.8
20220121073317 25 358 4.0 8.0 0.00 0.00 0.00 43 1037.8
20220121072819 25 341 4.0 9.0 0.00 0.00 0.00 42 1037.9
20220121072322 26 21 3.0 8.0 0.00 0.00 0.00 42 1038.0
20220121071823 26 37 3.0 7.0 0.00 0.00 0.00 42 1037.9
20220121071325 26 8 4.0 7.0 0.00 0.00 0.00 42 1037.9
20220121070828 26 26 3.0 10.0 0.00 0.00 0.00 41 1038.1
20220121070328 27 331 5.0 10.0 0.00 0.00 0.00 41 1038.1
20220121065829 27 342 6.0 10.0 0.00 0.00 0.00 40 1038.2
20220121065315 27 10 5.0 12.0 0.00 0.00 0.00 40 1038.4
20220121064816 27 36 6.0 12.0 0.00 0.00 0.00 40 1038.3
20220121064317 28 5 6.0 14.0 0.00 0.00 0.00 40 1038.4
20220121063829 28 339 7.0 14.0 0.00 0.00 0.00 39 1038.3
20220121063315 28 52 6.0 12.0 0.00 0.00 0.00 39 1038.3
20220121062818 28 17 7.0 12.0 0.00 0.00 0.00 39 1038.2
20220121062321 28 28 6.0 12.0 0.00 0.00 0.00 39 1038.3